Location: St. Louis
(38.6270°N, 90.1994°W)
Time: 09:07:47
(UTC-06:00)

Transit 4A - Pass Details

Date: 04 December 2021
Orbit: 864 x 981 km, 66.8° (Epoch: 19 January)

Event Time Altitude Azimuth Distance (km) Brightness Sun altitude
Rises 04:06:39 0° 333° (NNW) 3,621 - -33.7°
Reaches altitude 10° 04:09:11 10° 335° (NNW) 2,688 - -33.2°
Maximum altitude 04:15:30 74° 61° (ENE) 1,010 - -32.0°
Exits shadow 04:15:41 73° 76° (ENE) 1,014 8.1 -31.9°
Drops below altitude 10° 04:21:52 10° 146° (SE) 2,721 10.8 -30.7°
Sets 04:24:27 0° 148° (SSE) 3,668 11.5 -30.2°
